[[{"header":{"parameterUnit":"m.s-1","parameterCategory":1,"la1":30.2991,"la2":30.254,"lo1":-89.0895,"lo2":-89.0444,"dy":0.0017,"dx":0.0017,"nx":28,"ny":28,"refTime":"2024-08-09T15:00:00:Z","depth":0,"parameterNumber":2,"parameterNumberName":"U-component_of_WINDS"},"data":[0,0,0,0,0,0,0,0,0,0,0,0,0,0,0,0,0,0,0,0,0,0,0,0,0,0,0,0,0,0,0,0,0,0,0,0,0,0,0,0,0,0,0,0,0,0,0,0,0,0,0,0,0,0,0,0,0,0,0.5654,0.5654,0,0.5611,0.5611,0.561,0.5618,0.5619,0.5619,0.562,0.5574,0.5572,0.557,0,0,0,0,0,0,0,0,0,0,0,0,0,0.5741,0.5739,0.5654,0.5654,0.5653,0.5611,0.5611,0.561,0.5618,0.5619,0.562,0.562,0.5575,0.5572,0.557,0,0,0,0,0,0,0,0,0,0,0,0,0,0.5701,0.5738,0.5654,0.5652,0.5651,0.5612,0.5611,0.561,0.5617,0.5619,0.562,0.5621,0.5575,0.5573,0.557,0.5529,0,0,0.5561,0.556,0,0,0,0,0,0,0,0,0.5703,0.5698,0.5653,0.5652,0.5651,0.5621,0.5624,0.5583,0.5617,0.563,0.562,0.5621,0.5589,0.5585,0.5574,0.5527,0.5525,0.5561,0.5559,0.5558,0.5557,0,0,0,0,0,0,0,0.5706,0.57,0.5637,0.5652,0.5651,0.5652,0.5648,0.5617,0.5603,0.5629,0.563,0.5625,0.5588,0.5577,0.5573,0.5524,0.5561,0.5558,0.5556,0.5555,0.5442,0.5441,0,0,0,0,0,0,0.571,0.5702,0.5638,0.5636,0.5681,0.565,0.5645,0.563,0.5604,0.5601,0.5624,0.5625,0.5581,0.5576,0.5571,0.5522,0.5558,0.5555,0.5553,0.5443,0.5442,0.544,0,0,0,0,0,0,0.5711,0.5704,0.564,0.5669,0.5661,0.5647,0.563,0.5628,0.5617,0.56,0.5597,0.5614,0.5582,0.5576,0.554,0.552,0.5554,0.5551,0.5445,0.5443,0.5441,0.5422,0,0,0,0,0,0,0.5714,0.5705,0.5689,0.5669,0.5659,0.5609,0.5629,0.5626,0.5612,0.5613,0.559,0.5588,0.5582,0.5544,0.5537,0.5517,0.5549,0.5446,0.5444,0.5442,0.5424,0.542,0.5416,0,0,0,0,0,0.5717,0.5685,0.5688,0.5681,0.564,0.5608,0.5603,0.5598,0.561,0.5594,0.5584,0.5588,0.5524,0.554,0.5532,0.5511,0.5447,0.5444,0.5442,0.5426,0.5421,0.5416,0,0,0,0,0,0,0.5702,0.5682,0.5686,0.5646,0.5629,0.561,0.5589,0.5592,0.5571,0.5573,0.5568,0.5562,0.5526,0.5515,0.5534,0.5471,0.5487,0.5483,0.5478,0.5473,0.5469,0.5471,0.5546,0,0,0,0,0,0.5695,0.5671,0.5655,0.5622,0.5613,0.5603,0.5589,0.5587,0.5569,0.5561,0.5548,0.5529,0.5505,0.5489,0.5465,0.5424,0.5419,0.5406,0.5401,0.5398,0.5393,0.537,0.5364,0.5431,0.5431,0.5431,0,0,0.5678,0.5665,0.565,0.5618,0.5605,0.558,0.5596,0.5569,0.5551,0.5557,0.5522,0.5512,0.5491,0.5452,0.5434,0.5442,0.5374,0.5394,0.5392,0.5389,0.5367,0.536,0.5355,0.5429,0.5429,0.543,0,0,0.5635,0.5623,0.5594,0.558,0.556,0.5554,0.5547,0.5528,0.5521,0.5487,0.5491,0.5469,0.5427,0.5412,0.5399,0.5352,0.5355,0.5345,0.5322,0.5299,0.5294,0.5289,0.5271,0.5265,0.5341,0.5341,0.5341,0,0.5617,0.558,0.5578,0.5551,0.5537,0.5543,0.5513,0.55,0.5473,0.5462,0.5472,0.5421,0.5407,0.5364,0.5353,0.5343,0.5334,0.5346,0.5295,0.529,0.5286,0.5269,0.5262,0.5339,0.5339,0.534,0.534,0,0.5558,0.5533,0.5512,0.5486,0.547,0.5442,0.5435,0.5419,0.5419,0.5412,0.5377,0.5361,0.5335,0.5325,0.5324,0.5282,0.5288,0.5297,0.5313,0.5278,0.5262,0.5256,0.5338,0.5338,0.5338,0.5339,0,0,0.5502,0.5478,0.547,0.5458,0.5437,0.5417,0.539,0.5365,0.5351,0.5333,0.5308,0.5274,0.5282,0.5267,0.5266,0.5246,0.5209,0.5257,0.5257,0.5247,0.5161,0.5153,0.5146,0.5212,0.5211,0.521,0.5162,0,0.5456,0.5407,0.5405,0.536,0.5336,0.5343,0.5319,0.5303,0.5296,0.5274,0.5267,0.5242,0.5255,0.5246,0.5228,0.5218,0.5192,0.5221,0.5189,0.5187,0.5191,0.5138,0.5129,0.5084,0.5156,0.5155,0.5154,0,0.5395,0.5376,0.5328,0.5312,0.5302,0.528,0.5257,0.5237,0.522,0.5216,0.52,0.5202,0.5173,0.5192,0.5152,0.5173,0.516,0.5153,0.5151,0.5146,0.5167,0.5129,0.507,0.5063,0.5145,0.5146,0.5146,0,0.5357,0.5319,0.5286,0.5277,0.5256,0.5241,0.5232,0.5216,0.5201,0.5182,0.5172,0.5149,0.5136,0.5119,0.5114,0.5129,0.5074,0.5093,0.5069,0.5069,0.5055,0.5055,0.4991,0.505,0.505,0.505,0.505,0,0.5304,0.5274,0.5269,0.5248,0.5216,0.5214,0.5182,0.5174,0.516,0.5138,0.5142,0.5121,0.5117,0.5095,0.5092,0.5059,0.5053,0.5049,0.5048,0.5047,0.5047,0.5036,0.5039,0.5048,0.5049,0.5049,0.5049,0,0.5255,0.525,0.5214,0.5199,0.5194,0.5171,0.5157,0.5137,0.5132,0.5104,0.5097,0.5088,0.5063,0.5057,0.5027,0.5024,0.4985,0.4988,0.499,0.499,0.4966,0.4967,0.489,0.488,0.4947,0.4947,0.4946,0,0.522,0.5198,0.5181,0.5166,0.5157,0.5134,0.5119,0.5118,0.5102,0.5082,0.5064,0.504,0.502,0.4979,0.4969,0.4946,0.4947,0.4922,0.4944,0.4944,0.4945,0.4946,0.4943,0.4917,0.4916,0.4916,0.4915,0,0.5159,0.5158,0.5138,0.5116,0.5099,0.5082,0.5066,0.5054,0.505,0.5033,0.5007,0.4992,0.4962,0.4937,0.4914,0.4904,0.4909,0.4909,0.4902,0.49,0.4902,0.4899,0.4977,0.491,0.4911,0.4911,0.4911,0.4912,0.5115,0.5095,0.508,0.5057,0.5045,0.503,0.5011,0.5004,0.4983,0.4958,0.4959,0.4931,0.4915,0.4885,0.4874,0.4852,0.486,0.485,0.4847,0.4844,0.4841,0.4908,0.4848,0.4848,0.4848,0.4849,0.4849,0,0.5053,0.5044,0.5023,0.5,0.4982,0.499,0.4973,0.4957,0.4932,0.4918,0.4899,0.4869,0.4846,0.4835,0.4812,0.4796,0.4798,0.479,0.479,0.4788,0.4836,0.4844,0.4789,0.4789,0.4789,0.4789,0.4789,0.4789,0.5018,0.4985,0.4983,0.4944,0.4935,0.4908,0.4898,0.4884,0.4872,0.484,0.482,0.4814,0.4801,0.4777,0.4756,0.4754,0.4744,0.4735,0.4733,0.4778,0.4784,0.479,0.4797,0.4734,0.4733,0.4686,0.4686,0.4686]},{"header":{"parameterUnit":"m.s-1","parameterCategory":1,"la1":30.2991,"la2":30.254,"lo1":-89.0895,"lo2":-89.0444,"dy":0.0017,"dx":0.0017,"nx":28,"ny":28,"refTime":"2024-08-09T15:00:00:Z","depth":0,"parameterNumber":3,"parameterNumberName":"V-component_of_WINDS"},"data":[0,0,0,0,0,0,0,0,0,0,0,0,0,0,0,0,0,0,0,0,0,0,0,0,0,0,0,0,0,0,0,0,0,0,0,0,0,0,0,0,0,0,0,0,0,0,0,0,0,0,0,0,0,0,0,0,0,0,-3.6453,-3.6455,0,-3.6563,-3.6564,-3.6565,-3.6534,-3.6532,-3.653,-3.6528,-3.6636,-3.6641,-3.6646,0,0,0,0,0,0,0,0,0,0,0,0,0,-3.6215,-3.6219,-3.6453,-3.6455,-3.6456,-3.6562,-3.6564,-3.6565,-3.6535,-3.6532,-3.6529,-3.6527,-3.6635,-3.664,-3.6646,0,0,0,0,0,0,0,0,0,0,0,0,0,-3.632,-3.6221,-3.6453,-3.6454,-3.6455,-3.6562,-3.6564,-3.6566,-3.6535,-3.6532,-3.6529,-3.6526,-3.6633,-3.664,-3.6647,-3.6759,0,0,-3.667,-3.6673,0,0,0,0,0,0,0,0,-3.6314,-3.6329,-3.6452,-3.6454,-3.6455,-3.6532,-3.6519,-3.6631,-3.6536,-3.6505,-3.6528,-3.6524,-3.6604,-3.6613,-3.6641,-3.6764,-3.6769,-3.6671,-3.6675,-3.6678,-3.668,0,0,0,0,0,0,0,-3.6307,-3.6324,-3.6496,-3.6454,-3.6456,-3.6447,-3.6459,-3.654,-3.6571,-3.6507,-3.6505,-3.6519,-3.6604,-3.6634,-3.6643,-3.6771,-3.667,-3.6677,-3.6682,-3.6684,-3.6991,-3.6994,0,0,0,0,0,0,-3.6299,-3.6318,-3.6493,-3.65,-3.6375,-3.6454,-3.6467,-3.651,-3.6571,-3.6577,-3.6521,-3.6517,-3.6623,-3.6635,-3.6647,-3.6782,-3.6678,-3.6685,-3.6689,-3.6987,-3.6991,-3.6995,0,0,0,0,0,0,-3.6294,-3.6315,-3.6489,-3.6409,-3.643,-3.6462,-3.6511,-3.6514,-3.6544,-3.6581,-3.6586,-3.6547,-3.6621,-3.6637,-3.6732,-3.6786,-3.6688,-3.6695,-3.6983,-3.6988,-3.6993,-3.7053,0,0,0,0,0,0,-3.6287,-3.6313,-3.6357,-3.641,-3.6434,-3.6573,-3.6514,-3.6519,-3.6558,-3.6553,-3.6606,-3.6612,-3.6619,-3.6721,-3.6739,-3.6794,-3.6701,-3.6978,-3.6985,-3.6992,-3.7047,-3.706,-3.7072,0,0,0,0,0,-3.6279,-3.6369,-3.636,-3.6381,-3.649,-3.6576,-3.659,-3.6598,-3.6562,-3.6606,-3.6629,-3.661,-3.6777,-3.6731,-3.6751,-3.6809,-3.6975,-3.6983,-3.6991,-3.7041,-3.7058,-3.7072,0,0,0,0,0,0,-3.6321,-3.6376,-3.6366,-3.6476,-3.6522,-3.6571,-3.6626,-3.6615,-3.6671,-3.6664,-3.667,-3.6682,-3.6779,-3.6803,-3.6752,-3.692,-3.687,-3.6883,-3.6901,-3.6917,-3.6929,-3.6922,-3.6707,0,0,0,0,0,-3.6344,-3.641,-3.6454,-3.6546,-3.657,-3.6594,-3.6632,-3.6634,-3.6681,-3.67,-3.673,-3.6775,-3.6838,-3.6879,-3.6938,-3.705,-3.7061,-3.7099,-3.7112,-3.7122,-3.7133,-3.7193,-3.7211,-3.7023,-3.7023,-3.7022,0,0,-3.639,-3.6428,-3.6469,-3.6556,-3.6591,-3.6659,-3.6611,-3.6684,-3.6734,-3.671,-3.6802,-3.6826,-3.6877,-3.6981,-3.7028,-3.7004,-3.7187,-3.7133,-3.7141,-3.7146,-3.7204,-3.7221,-3.7237,-3.7028,-3.7027,-3.7026,0,0,-3.6509,-3.6545,-3.6626,-3.6663,-3.6717,-3.6733,-3.6752,-3.6803,-3.6819,-3.6911,-3.6895,-3.6953,-3.7061,-3.7098,-3.713,-3.7263,-3.7247,-3.7282,-3.7347,-3.7406,-3.7421,-3.7434,-3.7481,-3.7498,-3.7292,-3.7293,-3.7293,0,-3.656,-3.6662,-3.6669,-3.6744,-3.6782,-3.6765,-3.6847,-3.6881,-3.6952,-3.6978,-3.6951,-3.7085,-3.7118,-3.723,-3.7262,-3.7289,-3.7311,-3.7276,-3.7418,-3.7431,-3.7444,-3.7489,-3.7506,-3.7296,-3.7296,-3.7296,-3.7295,0,-3.6721,-3.6792,-3.685,-3.6921,-3.6965,-3.7043,-3.7061,-3.7105,-3.7103,-3.7121,-3.7215,-3.7254,-3.7321,-3.7347,-3.7346,-3.7459,-3.7442,-3.7417,-3.7366,-3.7466,-3.7508,-3.7525,-3.7302,-3.7301,-3.7299,-3.7298,0,0,-3.687,-3.6943,-3.6965,-3.6996,-3.7055,-3.7109,-3.7185,-3.7252,-3.7289,-3.7338,-3.7402,-3.7493,-3.747,-3.7507,-3.7509,-3.756,-3.7662,-3.7528,-3.7529,-3.7551,-3.7789,-3.7808,-3.7828,-3.7652,-3.7655,-3.7658,-3.7785,0,-3.6994,-3.7131,-3.7139,-3.7262,-3.7327,-3.7311,-3.7377,-3.742,-3.7439,-3.7495,-3.7515,-3.758,-3.7544,-3.7566,-3.7617,-3.7639,-3.771,-3.763,-3.771,-3.7713,-3.7699,-3.785,-3.7871,-3.7989,-3.7801,-3.7804,-3.7806,0,-3.7158,-3.7213,-3.7342,-3.7392,-3.7419,-3.7479,-3.754,-3.7595,-3.7642,-3.7652,-3.7694,-3.7689,-3.7766,-3.7713,-3.7818,-3.7764,-3.7797,-3.7813,-3.7817,-3.7825,-3.7766,-3.7862,-3.8027,-3.8044,-3.7832,-3.783,-3.7828,0,-3.7253,-3.736,-3.7451,-3.7478,-3.7538,-3.758,-3.7607,-3.7651,-3.769,-3.7743,-3.7769,-3.7829,-3.7863,-3.7909,-3.792,-3.7881,-3.8026,-3.7974,-3.8035,-3.8035,-3.8067,-3.8065,-3.8239,-3.8088,-3.8088,-3.8087,-3.8087,0,-3.7391,-3.7471,-3.7495,-3.7551,-3.764,-3.7648,-3.7735,-3.7758,-3.7798,-3.7857,-3.7847,-3.7902,-3.7913,-3.7971,-3.798,-3.8065,-3.808,-3.809,-3.8091,-3.8091,-3.809,-3.8113,-3.8105,-3.8092,-3.8091,-3.809,-3.8089,0,-3.7514,-3.7533,-3.7631,-3.768,-3.7694,-3.7757,-3.7798,-3.7851,-3.7868,-3.7943,-3.7961,-3.7988,-3.8055,-3.8071,-3.815,-3.8156,-3.8258,-3.8251,-3.8242,-3.8242,-3.8302,-3.8297,-3.8498,-3.8524,-3.8356,-3.8358,-3.8359,0,-3.7601,-3.7662,-3.7717,-3.7757,-3.7785,-3.7849,-3.7889,-3.7899,-3.7941,-3.8,-3.8046,-3.8112,-3.8165,-3.8273,-3.8299,-3.8359,-3.8354,-3.842,-3.8363,-3.8361,-3.8355,-3.8351,-3.8357,-3.8431,-3.8433,-3.8435,-3.8436,0,-3.7753,-3.7759,-3.7818,-3.7881,-3.7929,-3.7978,-3.8025,-3.8058,-3.8074,-3.8121,-3.8191,-3.8232,-3.8314,-3.8379,-3.844,-3.8466,-3.8454,-3.8454,-3.8471,-3.8472,-3.8464,-3.8469,-3.8272,-3.8449,-3.8448,-3.8447,-3.8446,-3.8445,-3.786,-3.7913,-3.7961,-3.8026,-3.8063,-3.8107,-3.8159,-3.8183,-3.8242,-3.831,-3.8311,-3.8387,-3.8431,-3.8512,-3.8541,-3.8599,-3.8579,-3.8604,-3.861,-3.8616,-3.8622,-3.8455,-3.861,-3.861,-3.8609,-3.8609,-3.8609,0,-3.8011,-3.8041,-3.8102,-3.8168,-3.8219,-3.8204,-3.8255,-3.8299,-3.8366,-3.8409,-3.8462,-3.8541,-3.8604,-3.8635,-3.8697,-3.8738,-3.8734,-3.8754,-3.8751,-3.8757,-3.8637,-3.8616,-3.8756,-3.8756,-3.8756,-3.8756,-3.8756,-3.8756,-3.8096,-3.8186,-3.8198,-3.8305,-3.8334,-3.8408,-3.8439,-3.8479,-3.8513,-3.8602,-3.8656,-3.8675,-3.8713,-3.8778,-3.8835,-3.8842,-3.8866,-3.8889,-3.8893,-3.878,-3.8765,-3.8751,-3.8731,-3.8894,-3.8894,-3.9008,-3.9009,-3.901]}]]